C31FR-13 Weather Reports


Display with metric or nautical units.
time (UTC)temp
F
wind
direction
speed
MPH
gust
MPH
rain 1hr
in
rain 24hr
in
rain mn
in
humidity
%
barometer
mb
20260509141602 58 0.0 0.0 0.00 0.00 0.00 63 1011.5
20260509141103 58 0.0 0.0 0.00 0.00 0.00 63 1011.7
20260509140602 58 0.0 0.0 0.00 0.00 0.00 63 1011.8
20260509135602 59 0.0 0.0 0.00 0.00 0.00 62 1012.0
20260509135102 59 0.0 0.0 0.00 0.00 0.00 62 1012.1
20260509134602 59 0.0 0.0 0.00 0.00 0.00 62 1012.0
20260509134102 59 0.0 0.0 0.00 0.00 0.00 62 1012.1
20260509133603 59 0.0 0.0 0.00 0.00 0.00 62 1012.1
20260509133102 59 0.0 0.0 0.00 0.00 0.00 62 1012.0
20260509132603 59 0.0 0.0 0.00 0.00 0.00 61 1011.9
20260509132102 59 0.0 0.0 0.00 0.00 0.00 61 1012.0
20260509131602 59 0.0 0.0 0.00 0.00 0.00 60 1011.9
20260509131103 59 0.0 0.0 0.00 0.00 0.00 59 1011.9
20260509130602 60 0.0 0.0 0.00 0.00 0.00 58 1012.0
20260509125604 60 0.0 0.0 0.00 0.00 0.00 58 1012.0
20260509125102 60 0.0 0.0 0.00 0.00 0.00 58 1012.1
20260509124602 60 0.0 0.0 0.00 0.00 0.00 57 1012.1
20260509124103 60 0.0 0.0 0.00 0.00 0.00 57 1012.2
20260509123603 60 0.0 0.0 0.00 0.00 0.00 57 1012.4
20260509123102 60 0.0 0.0 0.00 0.00 0.00 57 1012.5
20260509122603 59 0.0 0.0 0.00 0.00 0.00 57 1012.5
20260509122102 59 0.0 0.0 0.00 0.00 0.00 56 1012.5
20260509121602 60 0.0 0.0 0.00 0.00 0.00 55 1012.6
20260509121102 60 0.0 0.0 0.00 0.00 0.00 55 1012.6
20260509120602 60 0.0 0.0 0.00 0.00 0.00 55 1012.6
20260509115602 60 0.0 0.0 0.00 0.00 0.00 54 1012.3
20260509115103 60 0.0 0.0 0.00 0.00 0.00 54 1012.3
20260509114602 60 0.0 0.0 0.00 0.00 0.00 55 1012.1
20260509114102 60 0.0 0.0 0.00 0.00 0.00 55 1012.2
20260509113602 60 0.0 0.0 0.00 0.00 0.00 56 1012.2
20260509113102 60 0.0 0.0 0.00 0.00 0.00 56 1012.2
20260509112603 60 0.0 0.0 0.00 0.00 0.00 56 1012.4
20260509111602 60 0.0 0.0 0.00 0.00 0.00 56 1012.7
20260509111102 59 0.0 0.0 0.00 0.00 0.00 57 1012.7
20260509110602 59 0.0 0.0 0.00 0.00 0.00 57 1012.7
20260509110103 59 0.0 0.0 0.00 0.00 0.00 58 1012.8
20260509105603 59 0.0 0.0 0.00 0.00 0.00 59 1013.0
20260509105102 58 0.0 0.0 0.00 0.00 0.00 59 1013.1
20260509104602 58 0.0 0.0 0.00 0.00 0.00 58 1013.3
20260509104108 58 0.0 0.0 0.00 0.00 0.00 60 1013.4
20260509103602 58 0.0 0.0 0.00 0.00 0.00 60 1013.3
20260509103103 58 0.0 0.0 0.00 0.00 0.00 60 1013.3
20260509102603 58 0.0 0.0 0.00 0.00 0.00 60 1013.4
20260509101602 58 0.0 0.0 0.00 0.00 0.00 59 1013.4
20260509101102 57 0.0 0.0 0.00 0.00 0.00 60 1013.3
20260509100603 57 0.0 0.0 0.00 0.00 0.00 60 1013.2
20260509095602 57 0.0 0.0 0.00 0.00 0.00 62 1013.3
20260509095102 57 0.0 0.0 0.00 0.00 0.00 61 1013.2
20260509094602 57 0.0 0.0 0.00 0.00 0.00 62 1013.2
20260509094102 56 0.0 0.0 0.00 0.00 0.00 63 1013.4
20260509093603 56 0.0 0.0 0.00 0.00 0.00 63 1013.4
20260509093102 56 0.0 0.0 0.00 0.00 0.00 64 1013.3
20260509092102 55 0.0 0.0 0.00 0.00 0.00 64 1013.5
20260509091602 55 0.0 0.0 0.00 0.00 0.00 64 1013.5
20260509091102 55 0.0 0.0 0.00 0.00 0.00 65 1013.7
20260509090602 55 0.0 0.0 0.00 0.00 0.00 66 1013.6
20260509085602 55 0.0 0.0 0.00 0.00 0.00 65 1013.4
20260509085102 54 0.0 0.0 0.00 0.00 0.00 66 1013.6
20260509084603 54 0.0 0.0 0.00 0.00 0.00 67 1013.7
20260509084103 54 0.0 0.0 0.00 0.00 0.00 67 1013.7
20260509083602 54 0.0 0.0 0.00 0.00 0.00 67 1013.6
20260509083103 53 0.0 0.0 0.00 0.00 0.00 68 1013.7
20260509082603 54 0.0 0.0 0.00 0.00 0.00 68 1013.7
20260509082103 53 0.0 0.0 0.00 0.00 0.00 68 1013.7
20260509081602 54 0.0 0.0 0.00 0.00 0.00 67 1013.6
20260509081102 54 0.0 0.0 0.00 0.00 0.00 65 1013.5
20260509080602 54 0.0 0.0 0.00 0.00 0.00 64 1013.7
20260509075603 54 0.0 0.0 0.00 0.00 0.00 65 1013.6
20260509075102 54 0.0 0.0 0.00 0.00 0.00 66 1013.6
20260509074602 54 0.0 0.0 0.00 0.00 0.00 64 1013.7
20260509074102 54 0.0 0.0 0.00 0.00 0.00 64 1013.6
20260509073602 54 0.0 0.0 0.00 0.00 0.00 66 1013.7
20260509073103 53 0.0 0.0 0.00 0.00 0.00 67 1013.7
20260509072603 54 0.0 0.0 0.00 0.00 0.00 67 1013.7
20260509072103 53 0.0 0.0 0.00 0.00 0.00 69 1013.8
20260509071102 53 0.0 0.0 0.00 0.00 0.00 69 1014.1
20260509070602 53 0.0 0.0 0.00 0.00 0.00 70 1014.3
20260509065602 51 0.0 0.0 0.00 0.00 0.00 73 1014.7
20260509065103 51 0.0 0.0 0.00 0.00 0.00 72 1014.8
20260509064603 51 0.0 0.0 0.00 0.00 0.00 72 1014.9
20260509064102 51 0.0 0.0 0.00 0.00 0.00 72 1014.9
20260509063603 51 0.0 0.0 0.00 0.00 0.00 72 1015.1
20260509063101 51 0.0 0.0 0.00 0.00 0.00 71 1015.1
20260509062602 51 0.0 0.0 0.00 0.00 0.00 71 1015.2
20260509062102 51 0.0 0.0 0.00 0.00 0.00 73 1015.1
20260509061602 51 0.0 0.0 0.00 0.00 0.00 71 1015.0
20260509060603 52 0.0 0.0 0.00 0.00 0.00 70 1015.1
20260509055602 51 0.0 0.0 0.00 0.00 0.00 72 1014.9
20260509055102 51 0.0 0.0 0.00 0.00 0.00 72 1015.0
20260509054602 51 0.0 0.0 0.00 0.00 0.00 74 1015.0
20260509054102 51 0.0 0.0 0.00 0.00 0.00 73 1014.9
20260509053602 51 0.0 0.0 0.00 0.00 0.00 75 1014.7
20260509053102 50 0.0 0.0 0.00 0.00 0.00 75 1014.8
20260509052103 50 0.0 0.0 0.00 0.00 0.00 77 1014.8
20260509051102 50 0.0 0.0 0.00 0.00 0.00 77 1014.8
20260509045602 50 0.0 0.0 0.00 0.00 0.00 75 1014.7
20260509044603 50 0.0 0.0 0.00 0.00 0.00 76 1014.8
20260509044102 50 0.0 0.0 0.00 0.00 0.00 76 1014.7
20260509043602 50 0.0 0.0 0.00 0.00 0.00 76 1014.7
20260509043103 50 0.0 0.0 0.00 0.00 0.00 76 1014.8
20260509042602 50 0.0 0.0 0.00 0.00 0.00 77 1014.7
20260509042102 50 0.0 0.0 0.00 0.00 0.00 75 1014.7
20260509041602 51 0.0 0.0 0.00 0.00 0.00 74 1014.7
20260509041102 51 0.0 0.0 0.00 0.00 0.00 73 1014.8
20260509040603 50 0.0 0.0 0.00 0.00 0.00 75 1014.9
20260509035602 51 0.0 0.0 0.00 0.00 0.00 73 1015.0
20260509035103 51 0.0 0.0 0.00 0.00 0.00 73 1015.1
20260509034602 51 0.0 0.0 0.00 0.00 0.00 73 1015.0
20260509034102 51 0.0 0.0 0.00 0.00 0.00 73 1015.0
20260509033603 51 0.0 0.0 0.00 0.00 0.00 73 1015.0
20260509033102 52 0.0 0.0 0.00 0.00 0.00 72 1015.2
20260509032603 52 0.0 0.0 0.00 0.00 0.00 71 1015.2
20260509032102 52 0.0 0.0 0.00 0.00 0.00 71 1015.2
20260509031602 51 0.0 0.0 0.00 0.00 0.00 73 1015.3
20260509031102 51 0.0 0.0 0.00 0.00 0.00 73 1015.3
20260509030602 51 0.0 0.0 0.00 0.00 0.00 73 1015.2
20260509025102 52 0.0 0.0 0.00 0.00 0.00 71 1015.2
20260509024602 52 0.0 0.0 0.00 0.00 0.00 70 1015.2
20260509024102 53 0.0 0.0 0.00 0.00 0.00 71 1015.2
20260509023602 53 0.0 0.0 0.00 0.00 0.00 71 1015.2
20260509023103 53 0.0 0.0 0.00 0.00 0.00 71 1015.2
20260509022602 53 0.0 0.0 0.00 0.00 0.00 68 1015.3
20260509022102 52 0.0 0.0 0.00 0.00 0.00 69 1015.4
20260509021602 52 0.0 0.0 0.00 0.00 0.00 68 1015.5
20260509021103 53 0.0 0.0 0.00 0.00 0.00 66 1015.3
20260509020602 53 0.0 0.0 0.00 0.00 0.00 67 1015.3
20260509015602 53 0.0 0.0 0.00 0.00 0.00 70 1015.3
20260509015102 53 0.0 0.0 0.00 0.00 0.00 69 1015.3
20260509014602 53 0.0 0.0 0.00 0.00 0.00 67 1015.3
20260509014102 53 0.0 0.0 0.00 0.00 0.00 69 1015.3
20260509013603 53 0.0 0.0 0.00 0.00 0.00 70 1015.3
20260509012603 53 0.0 0.0 0.00 0.00 0.00 70 1015.5
20260509012103 53 0.0 0.0 0.00 0.00 0.00 69 1015.6
20260509011603 53 0.0 0.0 0.00 0.00 0.00 69 1015.6
20260509011102 53 0.0 0.0 0.00 0.00 0.00 68 1015.7
20260509010602 53 0.0 0.0 0.00 0.00 0.00 70 1015.8
20260509005602 53 0.0 0.0 0.00 0.00 0.00 69 1015.9
20260509005102 53 0.0 0.0 0.00 0.00 0.00 69 1016.0
20260509004601 53 0.0 0.0 0.00 0.00 0.00 70 1016.0
20260509004102 53 0.0 0.0 0.00 0.00 0.00 68 1015.9
20260509003602 53 0.0 0.0 0.00 0.00 0.00 69 1015.8
20260509003102 53 0.0 0.0 0.00 0.00 0.00 70 1015.9
20260509002602 52 0.0 0.0 0.00 0.00 0.00 67 1015.9
20260509002102 53 0.0 0.0 0.00 0.00 0.00 69 1016.0
20260509001603 52 0.0 0.0 0.00 0.00 0.00 69 1016.0
20260509001103 53 0.0 0.0 0.00 0.00 0.00 70 1016.0
20260509000602 52 0.0 0.0 0.00 0.00 0.00 71 1016.0
20260508235603 52 0.0 0.0 0.00 0.00 0.00 72 1016.0
20260508235102 52 0.0 0.0 0.00 0.00 0.00 71 1015.9
20260508234602 52 0.0 0.0 0.00 0.00 0.00 69 1015.8
20260508234102 52 0.0 0.0 0.00 0.00 0.00 71 1015.7
20260508233102 52 0.0 0.0 0.00 0.00 0.00 71 1015.9
20260508232602 52 0.0 0.0 0.00 0.00 0.00 69 1015.9
20260508232102 52 0.0 0.0 0.00 0.00 0.00 68 1015.9
20260508231602 53 0.0 0.0 0.00 0.00 0.00 68 1016.0
20260508231102 52 0.0 0.0 0.00 0.00 0.00 70 1016.0
20260508230603 52 0.0 0.0 0.00 0.00 0.00 70 1016.0
20260508225102 53 0.0 0.0 0.00 0.00 0.00 69 1016.0
20260508224603 52 0.0 0.0 0.00 0.00 0.00 70 1016.1
20260508224103 52 0.0 0.0 0.00 0.00 0.00 70 1016.0
20260508223602 52 0.0 0.0 0.00 0.00 0.00 69 1016.1
20260508223103 53 0.0 0.0 0.00 0.00 0.00 69 1016.1
20260508222602 53 0.0 0.0 0.00 0.00 0.00 70 1016.1
20260508221602 53 0.0 0.0 0.00 0.00 0.00 68 1016.2
20260508221102 54 0.0 0.0 0.00 0.00 0.00 67 1016.2
20260508220603 54 0.0 0.0 0.00 0.00 0.00 67 1016.2
20260508215602 54 0.0 0.0 0.00 0.00 0.00 66 1016.1
20260508214603 54 0.0 0.0 0.00 0.00 0.00 67 1016.1
20260508214102 54 0.0 0.0 0.00 0.00 0.00 68 1016.0
20260508213602 55 0.0 0.0 0.00 0.00 0.00 65 1015.9
20260508213103 54 0.0 0.0 0.00 0.00 0.00 65 1015.9
20260508212602 54 0.0 0.0 0.00 0.00 0.00 65 1015.9
20260508212102 54 0.0 0.0 0.00 0.00 0.00 66 1015.9
20260508211602 54 0.0 0.0 0.00 0.00 0.00 67 1015.9
20260508211102 55 0.0 0.0 0.00 0.00 0.00 65 1015.8
20260508210602 54 0.0 0.0 0.00 0.00 0.00 66 1015.8
20260508210103 55 0.0 0.0 0.00 0.00 0.00 64 1015.7
20260508205102 55 0.0 0.0 0.00 0.00 0.00 64 1015.6
20260508204602 56 0.0 0.0 0.00 0.00 0.00 64 1015.5
20260508204102 56 0.0 0.0 0.00 0.00 0.00 64 1015.5
20260508203602 56 0.0 0.0 0.00 0.00 0.00 63 1015.5
20260508203103 56 0.0 0.0 0.00 0.00 0.00 64 1015.5
20260508202602 56 0.0 0.0 0.00 0.00 0.00 63 1015.4
20260508202103 56 0.0 0.0 0.00 0.00 0.00 63 1015.4
20260508201603 56 0.0 0.0 0.00 0.00 0.00 63 1015.3
20260508201102 56 0.0 0.0 0.00 0.00 0.00 64 1015.3
20260508200603 56 0.0 0.0 0.00 0.00 0.00 64 1015.2
20260508195102 57 0.0 0.0 0.00 0.00 0.00 61 1014.9
20260508194602 57 0.0 0.0 0.00 0.00 0.00 58 1014.9
20260508194102 57 0.0 0.0 0.00 0.00 0.00 58 1014.8
20260508193102 57 0.0 0.0 0.00 0.00 0.00 57 1014.6
20260508192603 57 0.0 0.0 0.00 0.00 0.00 57 1014.5
20260508192102 57 0.0 0.0 0.00 0.00 0.00 57 1014.4
20260508191602 58 0.0 0.0 0.00 0.00 0.00 57 1014.4
20260508191103 58 0.0 0.0 0.00 0.00 0.00 56 1014.3
20260508190103 58 0.0 0.0 0.00 0.00 0.00 56 1014.1
20260508185602 58 0.0 0.0 0.00 0.00 0.00 55 1014.0
20260508185103 58 0.0 0.0 0.00 0.00 0.00 53 1014.1
20260508184602 58 0.0 0.0 0.00 0.00 0.00 53 1014.1
20260508184103 58 0.0 0.0 0.00 0.00 0.00 53 1014.1
20260508183602 58 0.0 0.0 0.00 0.00 0.00 52 1014.0
20260508182603 59 0.0 0.0 0.00 0.00 0.00 51 1013.8
20260508182102 59 0.0 0.0 0.00 0.00 0.00 50 1013.6
20260508181603 59 0.0 0.0 0.00 0.00 0.00 49 1013.5
20260508181102 59 0.0 0.0 0.00 0.00 0.00 49 1013.4
20260508180602 59 0.0 0.0 0.00 0.00 0.00 48 1013.3
20260508175602 60 0.0 0.0 0.00 0.00 0.00 47 1013.1
20260508175102 59 0.0 0.0 0.00 0.00 0.00 47 1013.1
20260508174602 59 0.0 0.0 0.00 0.00 0.00 47 1013.1
20260508174102 60 0.0 0.0 0.00 0.00 0.00 46 1013.1
20260508173602 60 0.0 0.0 0.00 0.00 0.00 45 1013.0
20260508173102 60 0.0 0.0 0.00 0.00 0.00 46 1013.0
20260508172603 60 0.0 0.0 0.00 0.00 0.00 45 1013.0
20260508172102 60 0.0 0.0 0.00 0.00 0.00 45 1012.9
20260508171103 62 0.0 0.0 0.00 0.00 0.00 43 1012.9
20260508170602 61 0.0 0.0 0.00 0.00 0.00 43 1012.8
20260508165602 61 0.0 0.0 0.00 0.00 0.00 45 1012.9
20260508165103 61 0.0 0.0 0.00 0.00 0.00 45 1012.8
20260508164602 61 0.0 0.0 0.00 0.00 0.00 46 1012.9
20260508164102 62 0.0 0.0 0.00 0.00 0.00 46 1012.9
20260508163602 61 0.0 0.0 0.00 0.00 0.00 46 1012.9
20260508163103 61 0.0 0.0 0.00 0.00 0.00 45 1012.9
20260508162603 62 0.0 0.0 0.00 0.00 0.00 45 1012.9
20260508162102 62 0.0 0.0 0.00 0.00 0.00 45 1012.8
20260508161102 62 0.0 0.0 0.00 0.00 0.00 45 1012.9
20260508160602 61 0.0 0.0 0.00 0.00 0.00 47 1012.9
20260508155602 62 0.0 0.0 0.00 0.00 0.00 46 1012.9
20260508155102 61 0.0 0.0 0.00 0.00 0.00 47 1013.0
20260508154602 61 0.0 0.0 0.00 0.00 0.00 47 1013.0
20260508154102 60 0.0 0.0 0.00 0.00 0.00 49 1013.0
20260508153602 60 0.0 0.0 0.00 0.00 0.00 47 1013.1
20260508153103 60 0.0 0.0 0.00 0.00 0.00 47 1013.1
20260508152602 60 0.0 0.0 0.00 0.00 0.00 47 1013.3
20260508152103 60 0.0 0.0 0.00 0.00 0.00 48 1013.2
20260508151603 59 0.0 0.0 0.00 0.00 0.00 49 1013.4
20260508151102 59 0.0 0.0 0.00 0.00 0.00 50 1013.5
20260508150603 59 0.0 0.0 0.00 0.00 0.00 50 1013.5
20260508145602 58 0.0 0.0 0.00 0.00 0.00 50 1013.7
20260508145103 59 0.0 0.0 0.00 0.00 0.00 49 1013.8
20260508144602 58 0.0 0.0 0.00 0.00 0.00 49 1014.0
20260508143602 58 0.0 0.0 0.00 0.00 0.00 50 1014.0
20260508143102 59 0.0 0.0 0.00 0.00 0.00 49 1014.0
20260508142602 59 0.0 0.0 0.00 0.00 0.00 47 1014.0
20260508142102 60 0.0 0.0 0.00 0.00 0.00 48 1013.9